W1HS Weather Reports


time (UTC)temp
C
wind
direction
speed
KPH
gust
KPH
rain 1hr
cm
rain 24hr
cm
rain mn
cm
humidity
%
barometer
mb
20260510171222 14 270 6.4 9.7 0.00 0.53 0.05 83 992.2
20260510170220 14 248 9.7 14.5 0.00 0.56 0.05 83 992.3
20260510165219 14 248 6.4 8.0 0.00 0.56 0.05 82 992.2
20260510164220 14 293 4.8 11.3 0.00 0.56 0.05 81 992.1
20260510163220 15 270 4.8 9.7 0.00 0.58 0.05 80 992.2
20260510162220 15 248 12.9 17.7 0.00 0.58 0.05 77 992.2
20260510161220 15 225 12.9 20.9 0.00 0.61 0.05 77 992.0
20260510160219 15 248 14.5 19.3 0.00 0.64 0.05 78 992.2
20260510155222 15 248 14.5 19.3 0.00 0.64 0.05 78 992.1
20260510154222 15 225 9.7 16.1 0.00 0.66 0.05 79 992.1
20260510153220 14 225 6.4 11.3 0.00 0.69 0.05 81 992.2
20260510152220 13 0.0 1.6 0.00 0.69 0.05 82 992.0
20260510151220 13 225 3.2 8.0 0.00 0.74 0.05 82 991.8
20260510150221 13 225 4.8 11.3 0.00 0.74 0.05 83 991.9
20260510145219 13 225 3.2 8.0 0.00 0.76 0.05 83 991.9
20260510144219 13 180 6.4 9.7 0.00 0.79 0.05 85 991.8
20260510143219 12 225 8.0 14.5 0.00 0.79 0.05 84 991.8
20260510142221 12 225 6.4 14.5 0.00 0.81 0.05 86 991.9
20260510141220 12 225 1.6 4.8 0.00 0.84 0.05 87 991.8
20260510140222 12 203 6.4 11.3 0.00 0.84 0.05 88 991.7
20260510135219 12 248 11.3 16.1 0.00 0.86 0.05 89 991.7
20260510134219 11 180 6.4 11.3 0.00 0.86 0.05 90 991.8
20260510133219 11 225 9.7 16.1 0.00 0.86 0.05 90 992.0
20260510132219 11 225 6.4 17.7 0.00 0.86 0.05 90 991.9
20260510131219 11 225 8.0 16.1 0.00 0.86 0.05 91 991.8
20260510130219 11 225 11.3 17.7 0.00 0.86 0.05 91 991.4
20260510125220 11 203 16.1 25.7 0.00 0.86 0.05 92 991.5
20260510124219 11 180 6.4 14.5 0.00 0.86 0.05 94 991.8
20260510123219 10 203 8.0 16.1 0.00 0.86 0.05 94 991.7
20260510122219 10 225 4.8 12.9 0.00 0.86 0.05 94 991.7
20260510121221 10 203 11.3 27.4 0.00 0.86 0.05 95 991.4
20260510120219 10 225 9.7 16.1 0.00 0.86 0.05 96 991.6
20260510115219 10 225 11.3 16.1 0.00 0.86 0.05 96 991.7
20260510114219 10 225 3.2 9.7 0.00 0.86 0.05 96 991.4
20260510113219 10 225 8.0 16.1 0.00 0.86 0.05 96 991.2
20260510112219 10 225 8.0 16.1 0.00 0.86 0.05 96 991.4
20260510111219 10 225 4.8 8.0 0.00 0.86 0.05 96 991.5
20260510110219 9 225 3.2 8.0 0.00 0.86 0.05 96 991.3
20260510105219 9 203 3.2 6.4 0.00 0.86 0.05 96 991.1
20260510104219 9 225 4.8 11.3 0.00 0.86 0.05 95 991.0
20260510103220 9 225 8.0 12.9 0.00 0.86 0.05 96 990.7
20260510102219 10 248 9.7 11.3 0.00 0.86 0.05 96 990.7
20260510101219 9 0.0 3.2 0.00 0.86 0.05 96 990.3
20260510100219 9 248 3.2 8.0 0.00 0.86 0.05 96 989.8
20260510095219 9 180 6.4 12.9 0.00 0.86 0.05 96 989.7
20260510094219 9 225 6.4 9.7 0.00 0.86 0.05 96 990.1
20260510093219 9 0.0 1.6 0.00 0.86 0.05 96 989.9
20260510092219 9 203 8.0 16.1 0.00 0.86 0.05 96 989.6
20260510091219 9 225 4.8 11.3 0.00 0.86 0.05 96 989.7
20260510090219 9 225 8.0 14.5 0.00 0.86 0.05 96 989.7
20260510085221 9 203 3.2 9.7 0.00 0.86 0.05 96 989.8
20260510084219 9 0.0 1.6 0.00 0.86 0.05 96 990.1
20260510083219 10 225 1.6 3.2 0.00 0.86 0.05 96 990.2
20260510082219 10 0.0 4.8 0.00 0.86 0.05 96 990.2
20260510081221 10 225 1.6 6.4 0.00 0.86 0.05 96 990.2
20260510080221 9 225 3.2 8.0 0.00 0.86 0.05 96 990.2
20260510075218 9 225 1.6 6.4 0.00 0.86 0.05 96 990.2
20260510074219 9 225 3.2 12.9 0.00 0.86 0.05 96 990.3
20260510073218 10 203 1.6 6.4 0.00 0.86 0.05 96 990.3
20260510072219 10 180 6.4 16.1 0.00 0.86 0.05 96 990.4
20260510071219 10 203 1.6 6.4 0.00 0.86 0.05 96 990.2
20260510070219 10 225 4.8 9.7 0.03 0.86 0.05 96 990.2
20260510065219 10 248 9.7 16.1 0.03 0.86 0.05 96 990.3
20260510064219 10 248 4.8 12.9 0.03 0.86 0.05 96 990.4
20260510063219 9 180 8.0 17.7 0.03 0.86 0.05 96 990.2
20260510062349 9 225 4.8 11.3 0.03 0.86 0.05 96 990.4
20260510061219 9 180 3.2 8.0 0.03 0.86 0.05 95 990.0
20260510060219 9 203 1.6 6.4 0.00 0.84 0.03 95 990.3
20260510055219 9 203 3.2 4.8 0.00 0.84 0.03 95 990.5
20260510053223 9 0.0 1.6 0.00 0.84 0.03 95 990.6
20260510052219 9 0.0 1.6 0.00 0.84 0.03 95 990.5
20260510051219 9 180 1.6 3.2 0.03 0.84 0.03 95 990.5
20260510050218 9 203 1.6 6.4 0.03 0.84 0.03 95 990.6
20260510045221 9 203 1.6 3.2 0.03 0.84 0.03 95 990.7
20260510044218 9 225 1.6 4.8 0.03 0.84 0.03 95 990.8
20260510043219 8 0.0 1.6 0.03 0.84 0.03 95 990.5
20260510042218 8 203 1.6 6.4 0.03 0.84 0.03 95 990.6
20260510041218 8 203 3.2 6.4 0.00 0.81 0.00 95 990.7
20260510040218 8 199 4.8 0.0 0.00 0.81 0.00 94 990.7
20260510035219 8 158 4.8 8.0 0.00 0.81 0.81 94 990.6
20260510034219 8 180 8.0 14.5 0.00 0.81 0.81 94 990.6
20260510033218 8 0.0 1.6 0.00 0.81 0.81 94 990.6
20260510032221 8 203 4.8 9.7 0.00 0.81 0.81 94 990.7
20260510031219 8 225 1.6 6.4 0.00 0.81 0.81 94 990.7
20260510030218 8 180 4.8 9.7 0.00 0.81 0.81 94 990.7
20260510025220 8 180 6.4 11.3 0.00 0.81 0.81 94 990.6
20260510024218 8 180 6.4 11.3 0.00 0.81 0.81 94 990.8
20260510023218 8 225 8.0 14.5 0.00 0.81 0.81 94 991.1
20260510022218 8 180 3.2 11.3 0.00 0.81 0.81 94 991.0
20260510021219 8 203 3.2 9.7 0.00 0.81 0.81 94 991.1
20260510020219 8 180 4.8 9.7 0.00 0.81 0.81 94 991.0
20260510015218 8 203 1.6 4.8 0.00 0.81 0.81 94 991.2
20260510014218 8 180 1.6 4.8 0.00 0.81 0.81 94 991.2
20260510013218 8 203 3.2 9.7 0.00 0.81 0.81 94 991.2
20260510012218 8 0.0 0.0 0.00 0.81 0.81 94 991.1
20260510011218 8 180 6.4 12.9 0.00 0.81 0.81 94 991.1
20260510010218 8 180 3.2 8.0 0.00 0.81 0.81 94 991.1
20260510005218 8 180 1.6 6.4 0.00 0.81 0.81 94 991.1
20260510004218 8 158 9.7 12.9 0.00 0.81 0.81 94 991.0
20260510003218 8 180 6.4 8.0 0.00 0.81 0.81 94 990.8
20260510002218 8 0.0 4.8 0.00 0.81 0.81 94 990.7
20260510001219 8 0.0 3.2 0.00 0.81 0.81 94 990.6
20260510000219 8 158 3.2 9.7 0.00 0.81 0.81 94 990.4
20260509235218 8 0.0 1.6 0.00 0.81 0.81 94 990.4
20260509234220 8 0.0 0.0 0.00 0.81 0.81 94 990.3
20260509233218 8 0.0 0.0 0.00 0.81 0.81 94 990.2
20260509232219 8 0.0 0.0 0.00 0.81 0.81 94 990.3
20260509231218 8 0.0 0.0 0.00 0.81 0.81 94 990.4
20260509230220 8 0.0 0.0 0.00 0.81 0.81 94 990.3
20260509225218 8 0.0 0.0 0.00 0.81 0.81 94 990.3
20260509224218 8 0.0 1.6 0.00 0.81 0.81 95 990.3
20260509223218 8 0.0 0.0 0.00 0.81 0.81 95 990.2
20260509222219 8 0.0 0.0 0.00 0.81 0.81 95 990.1
20260509221218 8 225 3.2 6.4 0.00 0.81 0.81 95 990.2
20260509220218 8 0.0 0.0 0.00 0.81 0.81 95 990.1
20260509215218 8 225 3.2 6.4 0.03 0.81 0.81 95 990.2
20260509214218 8 0.0 3.2 0.03 0.81 0.81 94 990.3
20260509213218 8 0.0 1.6 0.03 0.81 0.81 94 990.4
20260509212218 8 0.0 0.0 0.05 0.81 0.81 95 990.5
20260509211218 8 0.0 0.0 0.08 0.81 0.81 95 990.6
20260509210218 8 0.0 0.0 0.08 0.81 0.81 94 990.7
20260509205218 8 248 1.6 4.8 0.08 0.79 0.79 94 990.7
20260509204218 8 225 3.2 4.8 0.10 0.79 0.79 94 990.7
20260509203220 8 225 1.6 4.8 0.10 0.79 0.79 94 990.5
20260509202218 8 225 4.8 8.0 0.13 0.76 0.76 94 990.6
20260509201218 8 270 4.8 11.3 0.13 0.74 0.74 94 990.6
20260509200218 8 203 1.6 6.4 0.15 0.74 0.74 94 990.6
20260509195218 8 0.0 0.0 0.13 0.71 0.71 94 990.9
20260509194218 7 180 3.2 6.4 0.13 0.69 0.69 94 991.0
20260509193218 7 0.0 0.0 0.15 0.69 0.69 94 991.0
20260509192218 8 0.0 1.6 0.13 0.64 0.64 94 991.1
20260509191218 8 0.0 0.0 0.13 0.61 0.61 94 991.2
20260509190218 8 270 3.2 4.8 0.13 0.58 0.58 94 991.4
20260509185220 8 0.0 3.2 0.15 0.58 0.58 94 991.6
20260509184218 8 0.0 1.6 0.15 0.56 0.56 95 991.6
20260509183220 8 158 3.2 11.3 0.15 0.53 0.53 94 991.6
20260509182220 8 0.0 0.0 0.15 0.51 0.51 95 991.8
20260509181220 8 0.0 1.6 0.15 0.48 0.48 95 991.7
20260509180222 8 203 1.6 3.2 0.15 0.46 0.46 95 991.7
20260509175220 8 0.0 4.8 0.13 0.43 0.43 95 991.8
20260509174220 7 0.0 0.0 0.10 0.41 0.41 95 991.9
20260509173349 7 0.0 0.0 0.10 0.38 0.38 95 992.0
20260509172520 7 0.0 1.6 0.08 0.36 0.36 95 992.1